Weather History for KRME - February, 2014

Change the Weather History Date:

Wednesday, February 19, 2014

  Actual Average Record
Temperature  
Mean Temperature 26 °F -  
Max Temperature 36 °F 38 °F 62 °F (1981)
Min Temperature 15 °F 21 °F -10 °F (1993)
Degree Days  
Heating Degree Days 40    
Moisture  
Dew Point 26 °F    
Average Humidity 82    
Maximum Humidity 92    
Minimum Humidity 69    
Precipitation  
Precipitation 0.04 in - - ()
Sea Level Pressure  
Sea Level Pressure 29.83 in    
Wind  
Wind Speed 9 mph (SE)    
Max Wind Speed 17 mph    
Max Gust Speed -    
Visibility 8 miles    
Events Rain , Snow    
Averages and records for this station are not official NWS values.
T = Trace of Precipitation, MM = Missing Value Source: NWS Daily Summary

Daily Weather History Graph

Daily Weather History Graph

Search for Another Location

Airport or City:

Trip Planner

Search our weather history database for the weather conditions in past years. The results will help you decide how hot, cold, wet, or windy it might be!

Date:

Astronomy

Feb. 19, 2014 Rise Set
Actual Time 6:53 AM EST 5:37 PM EST
Civil Twilight 6:24 AM EST 6:06 PM EST
Nautical Twilight 5:51 AM EST 6:40 PM EST
Astronomical Twilight 5:18 AM EST 7:13 PM EST
Moon 10:38 PM EST (2/19) 8:49 AM EST (2/19)
Length of Visible Light 11h 42m
Length of Day
10h 44m
Waning Gibbous, 80% of the Moon is Illuminated
Feb 19
Waning Gibbous
Feb 22
Last Quarter
Mar 1
New
Mar 8
First Quarter
Mar 16
Full

Hourly Weather History & Observations

Time (EST) Temp. Windchill Dew Point Humidity Pressure Visibility Wind Dir Wind Speed Gust Speed Precip Events Conditions
12:53 AM 15.1 °F 6.4 °F 12.0 °F 88% 30.02 in 7.0 mi SSE 5.8 mph - N/A   Clear
1:53 AM 15.1 °F 9.4 °F 12.0 °F 88% 30.01 in 8.0 mi SE 3.5 mph - N/A   Clear
2:53 AM 21.0 °F 9.3 °F 16.0 °F 81% 29.98 in 10.0 mi East 11.5 mph - N/A   Clear
3:53 AM 19.9 °F 11.1 °F 16.0 °F 85% 29.99 in 9.0 mi SSE 6.9 mph - N/A   Clear
4:53 AM 23.0 °F 10.6 °F 17.1 °F 78% 29.93 in 10.0 mi East 13.8 mph - N/A   Clear
5:53 AM 23.0 °F 11.7 °F 17.1 °F 78% 29.85 in 10.0 mi ESE 11.5 mph - N/A   Clear
6:53 AM 19.9 °F 9.3 °F 16.0 °F 85% 29.81 in 9.0 mi SE 9.2 mph - N/A   Clear
7:53 AM 26.1 °F 16.2 °F 18.0 °F 71% 29.79 in 10.0 mi SE 10.4 mph - N/A   Scattered Clouds
8:53 AM 28.0 °F 18.6 °F 19.0 °F 69% 29.82 in 10.0 mi SE 10.4 mph - N/A   Overcast
9:53 AM 30.0 °F 22.4 °F 23.0 °F 75% 29.78 in 4.0 mi East 8.1 mph - 0.01 in Rain Light Freezing Rain
10:03 AM 30.9 °F 24.3 °F 23.0 °F 72% 29.76 in 7.0 mi ESE 6.9 mph - 0.01 in Rain Light Freezing Rain
10:28 AM 30.9 °F 22.2 °F 25.0 °F 79% 29.75 in 10.0 mi East 10.4 mph - 0.01 in   Overcast
10:53 AM 33.1 °F 23.4 °F 25.0 °F 72% 29.74 in 8.0 mi East 13.8 mph - 0.01 in   Overcast
11:36 AM 34.0 °F 26.6 °F 26.1 °F 73% 29.71 in 10.0 mi East 9.2 mph - 0.00 in   Overcast
11:53 AM 34.0 °F 26.0 °F 27.0 °F 75% 29.71 in 10.0 mi East 10.4 mph - 0.00 in   Overcast
12:53 PM 36.0 °F 29.0 °F 28.0 °F 73% 29.69 in 10.0 mi ESE 9.2 mph - N/A   Overcast
1:53 PM 35.1 °F 27.9 °F 28.0 °F 76% 29.68 in 9.0 mi ESE 9.2 mph - 0.00 in   Overcast
2:08 PM 35.1 °F 28.6 °F 28.0 °F 76% 29.67 in 9.0 mi East 8.1 mph - N/A   Overcast
2:53 PM 35.1 °F 28.6 °F 28.9 °F 78% 29.67 in 9.0 mi ESE 8.1 mph - 0.00 in   Overcast
3:53 PM 35.1 °F 29.3 °F 28.9 °F 78% 29.68 in 9.0 mi ESE 6.9 mph - N/A   Overcast
4:31 PM 34.0 °F 28.0 °F 28.9 °F 82% 29.68 in 8.0 mi ESE 6.9 mph - N/A   Overcast
4:53 PM 34.0 °F 28.8 °F 28.9 °F 82% 29.71 in 8.0 mi ESE 5.8 mph - 0.00 in Rain Light Rain
5:02 PM 34.0 °F 29.8 °F 28.9 °F 82% 29.70 in 8.0 mi ESE 4.6 mph - 0.00 in   Overcast
5:48 PM 33.8 °F 29.6 °F 28.4 °F 81% 29.72 in 7.0 mi SSE 4.6 mph - 0.00 in Rain Light Rain
5:53 PM 33.1 °F 28.7 °F 30.0 °F 89% 29.74 in 7.0 mi SE 4.6 mph - 0.00 in Rain Light Rain
6:53 PM 33.1 °F - 30.0 °F 89% 29.80 in 7.0 mi Calm Calm - 0.00 in   Overcast
7:35 PM 33.1 °F 26.1 °F 30.0 °F 89% 29.82 in 5.0 mi West 8.1 mph - 0.00 in Snow Light Snow
7:53 PM 34.0 °F 26.0 °F 30.9 °F 89% 29.86 in 5.0 mi West 10.4 mph - 0.00 in Rain Light Rain
8:04 PM 33.1 °F 25.5 °F 30.9 °F 92% 29.86 in 3.0 mi West 9.2 mph - 0.01 in Snow Light Snow
8:29 PM 34.0 °F 25.0 °F 30.9 °F 89% 29.87 in 5.0 mi West 12.7 mph - 0.02 in Rain Light Rain
8:53 PM 34.0 °F 24.6 °F 30.9 °F 89% 29.91 in 6.0 mi West 13.8 mph - 0.02 in Rain Light Rain
9:21 PM 34.0 °F 23.8 °F 30.9 °F 89% 29.92 in 7.0 mi West 16.1 mph - 0.00 in   Overcast
9:28 PM 34.0 °F 24.2 °F 30.9 °F 89% 29.93 in 7.0 mi West 15.0 mph - 0.00 in   Overcast
9:35 PM 34.0 °F 23.4 °F 30.9 °F 89% 29.94 in 7.0 mi West 17.3 mph - 0.00 in   Overcast
9:53 PM 34.0 °F 24.2 °F 30.0 °F 85% 29.97 in 7.0 mi West 15.0 mph - 0.00 in   Overcast
10:33 PM 34.0 °F 23.8 °F 30.0 °F 85% 30.00 in 7.0 mi West 16.1 mph - N/A   Overcast
10:53 PM 34.0 °F 25.0 °F 30.0 °F 85% 30.03 in 7.0 mi WNW 12.7 mph - N/A   Mostly Cloudy
11:53 PM 34.0 °F 25.0 °F 28.9 °F 82% 30.07 in 8.0 mi WNW 12.7 mph - N/A   Overcast